Flag for Netherlands Weather past 2 weeks in Emmen, Netherlands

Now
64 °F

Mild.


Feels Like: 64 °F
Forecast: 62 / 76 °F
Wind: N/A

Location: Meppen

Current Time: Jul 26, 2014 at 2:04:54 AM

Latest Report: Jul 26, 2014 at 1:00 AM


Visibility: 1 mi

Pressure: 29.95 "Hg

Humidity: 93%

Dew point: 62 °F

Location of EmmenLocation

Historic Weather in Emmen — Graph

°F

Emmen temperature yesterday

Maximum temperature yesterday: 67 °F (at 6:00 PM)
Minimum temperature yesterday: 62 °F (at 4:00 AM)
Average temperature yesterday: 64 °F

Past Weeks' High & Low Weather Summary

 TemperatureHumidityPressure
High93 °F (Jul 19, 4:00 PM)95% (Jul 16, 7:00 AM)30.20 "Hg (Jul 16, 7:00 AM)
Low53 °F (Jul 16, 6:00 AM)22% (Jul 19, 3:00 PM)29.76 "Hg (Jul 20, 6:00 PM)
Average70 °F69%30.01 "Hg
* Reported Midnight between Jul 10 and Jul 11 — Midnight between Jul 25 and Jul 26, Emmen, Weather by CustomWeather, © 2014

Note: Actual official high and low records may vary slightly from our data, if they occured in-between our weather recording intervals... More about our weather records

Advertising

Emmen weather history for previous 24 hours

 ConditionsComfort  
Time TempWeatherWind HumidityBarometerVisibility
12:00 AM
Jul 26
64 °FMild.2 mph92%29.94 "Hg2 mi
10:00 PM
Jul 25
66 °FMild.2 mph91%29.97 "Hg3 mi
9:00 PM66 °FMild.2 mph89%29.96 "Hg4 mi
7:00 PM67 °FMild.3 mph84%29.96 "Hg5 mi
6:00 PM67 °FMild.2 mph84%29.96 "Hg5 mi
4:00 PM66 °FMild.2 mph91%29.97 "Hg4 mi
3:00 PM63 °FMild.2 mph92%29.98 "Hg4 mi
2:00 PM62 °FCool.2 mph92%30.00 "Hg2 mi
1:00 PM62 °FRain. Low clouds.2 mph91%30.01 "Hg3 mi
12:00 PM63 °FRain. Low clouds.2 mph91%30.01 "Hg4 mi
10:00 AM63 °FLight rain. Overcast.3 mph88%30.03 "Hg6 mi
9:00 AM62 °FRain. Overcast.2 mph89%30.03 "Hg5 mi
7:00 AM62 °FOvercast.2 mph83%30.03 "Hg17 mi
6:00 AM62 °FOvercast.3 mph83%30.03 "Hg16 mi
4:00 AM62 °FCool.1 mph85%30.04 "Hg7 mi
3:00 AM62 °FCool.2 mph82%30.04 "Hg7 mi
2:00 AM62 °FCool.N/A81%30.05 "Hg7 mi
Weather by CustomWeather, © 2014

See weather overviewHow to use our weather pages